Year,Month,Day,Hour,Minute,Value (Times are PST for temperature in C)
2014,07,18,00,00,18.00
2014,07,18,00,01,18.10
2014,07,18,00,02,18.10
2014,07,18,00,03,18.10
2014,07,18,00,04,18.10
2014,07,18,00,05,18.10
2014,07,18,00,06,18.10
2014,07,18,00,07,18.10
2014,07,18,00,08,18.10
2014,07,18,00,09,18.10
2014,07,18,00,10,18.10
2014,07,18,00,11,18.10
2014,07,18,00,12,18.10
2014,07,18,00,13,18.10
2014,07,18,00,14,18.10
2014,07,18,00,15,18.10
2014,07,18,00,16,18.10
2014,07,18,00,17,18.10
2014,07,18,00,18,18.20
2014,07,18,00,19,18.20
2014,07,18,00,20,18.20
2014,07,18,00,21,18.20
2014,07,18,00,22,18.20
2014,07,18,00,23,18.20
2014,07,18,00,24,18.20
2014,07,18,00,25,18.30
2014,07,18,00,26,18.30
2014,07,18,00,27,18.30
2014,07,18,00,28,18.30
2014,07,18,00,29,18.30
2014,07,18,00,30,18.30
2014,07,18,00,31,18.30
2014,07,18,00,32,18.30
2014,07,18,00,33,18.30
2014,07,18,00,34,18.30
2014,07,18,00,35,18.30
2014,07,18,00,36,18.30
2014,07,18,00,37,18.30
2014,07,18,00,38,18.30
2014,07,18,00,39,18.30
2014,07,18,00,40,18.30
2014,07,18,00,41,18.30
2014,07,18,00,42,18.30
2014,07,18,00,43,18.30
2014,07,18,00,44,18.30
2014,07,18,00,45,18.30
2014,07,18,00,46,18.30
2014,07,18,00,47,18.30
2014,07,18,00,48,18.30
2014,07,18,00,49,18.30
2014,07,18,00,50,18.30
2014,07,18,00,51,18.30
2014,07,18,00,52,18.20
2014,07,18,00,53,18.20
2014,07,18,00,54,18.20
2014,07,18,00,55,18.20
2014,07,18,00,56,18.10
2014,07,18,00,57,18.10
2014,07,18,00,58,18.10
2014,07,18,00,59,18.00
2014,07,18,01,00,18.00
2014,07,18,01,01,18.00
2014,07,18,01,02,18.00
2014,07,18,01,03,17.90
2014,07,18,01,04,17.90
2014,07,18,01,05,17.90
2014,07,18,01,06,17.90
2014,07,18,01,07,17.90
2014,07,18,01,08,17.80
2014,07,18,01,09,17.80
2014,07,18,01,10,17.80
2014,07,18,01,11,17.80
2014,07,18,01,12,17.70
2014,07,18,01,13,17.70
2014,07,18,01,14,17.70
2014,07,18,01,15,17.70
2014,07,18,01,16,17.70
2014,07,18,01,17,17.70
2014,07,18,01,18,17.70
2014,07,18,01,19,17.70
2014,07,18,01,20,17.70
2014,07,18,01,21,17.70
2014,07,18,01,22,17.70
2014,07,18,01,23,17.70
2014,07,18,01,24,17.70
2014,07,18,01,25,17.70
2014,07,18,01,26,17.70
2014,07,18,01,27,17.70
2014,07,18,01,28,17.60
2014,07,18,01,29,17.60
2014,07,18,01,30,17.60
2014,07,18,01,31,17.60
2014,07,18,01,32,17.60
2014,07,18,01,33,17.60
2014,07,18,01,34,17.60
2014,07,18,01,35,17.60
2014,07,18,01,36,17.50
2014,07,18,01,37,17.50
2014,07,18,01,38,17.50
2014,07,18,01,39,17.50
2014,07,18,01,40,17.40
2014,07,18,01,41,17.40
2014,07,18,01,42,17.40
2014,07,18,01,43,17.40
2014,07,18,01,44,17.40
2014,07,18,01,45,17.30
2014,07,18,01,46,17.30
2014,07,18,01,47,17.30
2014,07,18,01,48,17.30
2014,07,18,01,49,17.30
2014,07,18,01,50,17.20
2014,07,18,01,51,17.20
2014,07,18,01,52,17.20
2014,07,18,01,53,17.10
2014,07,18,01,54,17.10
2014,07,18,01,55,17.00
2014,07,18,01,56,17.00
2014,07,18,01,57,16.90
2014,07,18,01,58,16.90
2014,07,18,01,59,16.90
2014,07,18,02,00,16.80
2014,07,18,02,01,16.80
2014,07,18,02,02,16.70
2014,07,18,02,03,16.70
2014,07,18,02,04,16.70
2014,07,18,02,05,16.60
2014,07,18,02,06,16.60
2014,07,18,02,07,16.60
2014,07,18,02,08,16.50
2014,07,18,02,09,16.50
2014,07,18,02,10,16.40
2014,07,18,02,11,16.40
2014,07,18,02,12,16.40
2014,07,18,02,13,16.40
2014,07,18,02,14,16.30
2014,07,18,02,15,16.30
2014,07,18,02,16,16.30
2014,07,18,02,17,16.30
2014,07,18,02,18,16.30
2014,07,18,02,19,16.30
2014,07,18,02,20,16.20
2014,07,18,02,21,16.20
2014,07,18,02,22,16.20
2014,07,18,02,23,16.20
2014,07,18,02,24,16.20
2014,07,18,02,25,16.20
2014,07,18,02,26,16.10
2014,07,18,02,27,16.10
2014,07,18,02,28,16.10
2014,07,18,02,29,16.10
2014,07,18,02,30,16.10
2014,07,18,02,31,16.10
2014,07,18,02,32,16.10
2014,07,18,02,33,16.00
2014,07,18,02,34,16.00
2014,07,18,02,35,16.00
2014,07,18,02,36,16.00
2014,07,18,02,37,15.90
2014,07,18,02,38,15.90
2014,07,18,02,39,15.90
2014,07,18,02,40,15.90
2014,07,18,02,41,15.90
2014,07,18,02,42,15.90
2014,07,18,02,43,15.90
2014,07,18,02,44,15.90
2014,07,18,02,45,15.80
2014,07,18,02,46,15.80
2014,07,18,02,47,15.80
2014,07,18,02,48,15.80
2014,07,18,02,49,15.70
2014,07,18,02,50,15.70
2014,07,18,02,51,15.70
2014,07,18,02,52,15.60
2014,07,18,02,53,15.60
2014,07,18,02,54,15.60
2014,07,18,02,55,15.60
2014,07,18,02,56,15.50
2014,07,18,02,57,15.50
2014,07,18,02,58,15.50
2014,07,18,02,59,15.50
2014,07,18,03,00,15.40
2014,07,18,03,01,15.50
2014,07,18,03,02,15.50
2014,07,18,03,03,15.50
2014,07,18,03,04,15.50
2014,07,18,03,05,15.50
2014,07,18,03,06,15.50
2014,07,18,03,07,15.60
2014,07,18,03,08,15.60
2014,07,18,03,09,15.60
2014,07,18,03,10,15.60
2014,07,18,03,11,15.60
2014,07,18,03,12,15.60
2014,07,18,03,13,15.60
2014,07,18,03,14,15.60
2014,07,18,03,15,15.60
2014,07,18,03,16,15.60
2014,07,18,03,17,15.60
2014,07,18,03,18,15.60
2014,07,18,03,19,15.60
2014,07,18,03,20,15.60
2014,07,18,03,21,15.60
2014,07,18,03,22,15.60
2014,07,18,03,23,15.60
2014,07,18,03,24,15.60
2014,07,18,03,25,15.60
2014,07,18,03,26,15.60
2014,07,18,03,27,15.60
2014,07,18,03,28,15.60
2014,07,18,03,29,15.50
2014,07,18,03,30,15.60
2014,07,18,03,31,15.50
2014,07,18,03,32,15.50
2014,07,18,03,33,15.50
2014,07,18,03,34,15.50
2014,07,18,03,35,15.50
2014,07,18,03,36,15.50
2014,07,18,03,37,15.50
2014,07,18,03,38,15.50
2014,07,18,03,39,15.40
2014,07,18,03,40,15.40
2014,07,18,03,41,15.40
2014,07,18,03,42,15.40
2014,07,18,03,43,15.40
2014,07,18,03,44,15.40
2014,07,18,03,45,15.40
2014,07,18,03,46,15.40
2014,07,18,03,47,15.30
2014,07,18,03,48,15.30
2014,07,18,03,49,15.30
2014,07,18,03,50,15.30
2014,07,18,03,51,15.30
2014,07,18,03,52,15.30
2014,07,18,03,53,15.30
2014,07,18,03,54,15.30
2014,07,18,03,55,15.20
2014,07,18,03,56,15.20
2014,07,18,03,57,15.20
2014,07,18,03,58,15.20
2014,07,18,03,59,15.20
2014,07,18,04,00,15.20
2014,07,18,04,01,15.20
2014,07,18,04,02,15.20
2014,07,18,04,03,15.20
2014,07,18,04,04,15.20
2014,07,18,04,05,15.20
2014,07,18,04,06,15.20
2014,07,18,04,07,15.20
2014,07,18,04,08,15.20
2014,07,18,04,09,15.20
2014,07,18,04,10,15.20
2014,07,18,04,11,15.20
2014,07,18,04,12,15.20
2014,07,18,04,13,15.20
2014,07,18,04,14,15.20
2014,07,18,04,15,15.20
2014,07,18,04,16,15.20
2014,07,18,04,17,15.20
2014,07,18,04,18,15.20
2014,07,18,04,19,15.20
2014,07,18,04,20,15.20
2014,07,18,04,21,15.20
2014,07,18,04,22,15.20
2014,07,18,04,23,15.10
2014,07,18,04,24,15.10
2014,07,18,04,25,15.10
2014,07,18,04,26,15.10
2014,07,18,04,27,15.10
2014,07,18,04,28,15.00
2014,07,18,04,29,15.00
2014,07,18,04,30,14.90
2014,07,18,04,31,14.90
2014,07,18,04,32,14.90
2014,07,18,04,33,14.80
2014,07,18,04,34,14.70
2014,07,18,04,35,14.70
2014,07,18,04,36,14.70
2014,07,18,04,37,14.60
2014,07,18,04,38,14.60
2014,07,18,04,39,14.60
2014,07,18,04,40,14.60
2014,07,18,04,41,14.60
2014,07,18,04,42,14.60
2014,07,18,04,43,14.50
2014,07,18,04,44,14.50
2014,07,18,04,45,14.50
2014,07,18,04,46,14.50
2014,07,18,04,47,14.50
2014,07,18,04,48,14.40
2014,07,18,04,49,14.40
2014,07,18,04,50,14.40
2014,07,18,04,51,14.40
2014,07,18,04,52,14.40
2014,07,18,04,53,14.40
2014,07,18,04,54,14.40
2014,07,18,04,55,14.40
2014,07,18,04,56,14.30
2014,07,18,04,57,14.30
2014,07,18,04,58,14.30
2014,07,18,04,59,14.30
2014,07,18,05,00,14.30
2014,07,18,05,01,14.30
2014,07,18,05,02,14.20
2014,07,18,05,03,14.20
2014,07,18,05,04,14.20
2014,07,18,05,05,14.20
2014,07,18,05,06,14.20
2014,07,18,05,07,14.20
2014,07,18,05,08,14.20
2014,07,18,05,09,14.20
2014,07,18,05,10,14.10
2014,07,18,05,11,14.10
2014,07,18,05,12,14.10
2014,07,18,05,13,14.10
2014,07,18,05,14,14.10
2014,07,18,05,15,14.10
2014,07,18,05,16,14.10
2014,07,18,05,17,14.10
2014,07,18,05,18,14.10
2014,07,18,05,19,14.10
2014,07,18,05,20,14.10
2014,07,18,05,21,14.10
2014,07,18,05,22,14.10
2014,07,18,05,23,14.10
2014,07,18,05,24,14.10
2014,07,18,05,25,14.10
2014,07,18,05,26,14.10
2014,07,18,05,27,14.10
2014,07,18,05,28,14.10
2014,07,18,05,29,14.10
2014,07,18,05,30,14.10
2014,07,18,05,31,14.10
2014,07,18,05,32,14.10
2014,07,18,05,33,14.00
2014,07,18,05,34,14.00
2014,07,18,05,35,13.90
2014,07,18,05,36,13.90
2014,07,18,05,37,13.80
2014,07,18,05,38,13.80
2014,07,18,05,39,13.70
2014,07,18,05,40,13.70
2014,07,18,05,41,13.60
2014,07,18,05,42,13.50
2014,07,18,05,43,13.50
2014,07,18,05,44,13.40
2014,07,18,05,45,13.30
2014,07,18,05,46,13.20
2014,07,18,05,47,13.10
2014,07,18,05,48,13.10
2014,07,18,05,49,13.00
2014,07,18,05,50,12.90
2014,07,18,05,51,12.90
2014,07,18,05,52,12.80
2014,07,18,05,53,12.70
2014,07,18,05,54,12.70
2014,07,18,05,55,12.60
2014,07,18,05,56,12.50
2014,07,18,05,57,12.50
2014,07,18,05,58,12.40
2014,07,18,05,59,12.30
2014,07,18,06,00,12.30
2014,07,18,06,01,12.20
2014,07,18,06,02,12.20
2014,07,18,06,03,12.10
2014,07,18,06,04,12.10
2014,07,18,06,05,12.00
2014,07,18,06,06,11.90
2014,07,18,06,07,11.90
2014,07,18,06,08,11.90
2014,07,18,06,09,11.80
2014,07,18,06,10,11.80
2014,07,18,06,11,11.80
2014,07,18,06,12,11.80
2014,07,18,06,13,11.80
2014,07,18,06,14,11.90
2014,07,18,06,15,11.90
2014,07,18,06,16,11.90
2014,07,18,06,17,12.00
2014,07,18,06,18,12.00
2014,07,18,06,19,12.00
2014,07,18,06,20,12.00
2014,07,18,06,21,12.10
2014,07,18,06,22,12.10
2014,07,18,06,23,12.10
2014,07,18,06,24,12.10
2014,07,18,06,25,12.20
2014,07,18,06,26,12.20
2014,07,18,06,27,12.20
2014,07,18,06,28,12.30
2014,07,18,06,29,12.30
2014,07,18,06,30,12.30
2014,07,18,06,31,12.40
2014,07,18,06,32,12.40
2014,07,18,06,33,12.40
2014,07,18,06,34,12.50
2014,07,18,06,35,12.50
2014,07,18,06,36,12.50
2014,07,18,06,37,12.50
2014,07,18,06,38,12.60
2014,07,18,06,39,12.60
2014,07,18,06,40,12.60
2014,07,18,06,41,12.60
2014,07,18,06,42,12.60
2014,07,18,06,43,12.60
2014,07,18,06,44,12.60
2014,07,18,06,45,12.60
2014,07,18,06,46,12.60
2014,07,18,06,47,12.60
2014,07,18,06,48,12.60
2014,07,18,06,49,12.60
2014,07,18,06,50,12.60
2014,07,18,06,51,12.60
2014,07,18,06,52,12.60
2014,07,18,06,53,12.60
2014,07,18,06,54,12.60
2014,07,18,06,55,12.60
2014,07,18,06,56,12.60
2014,07,18,06,57,12.60
2014,07,18,06,58,12.60
2014,07,18,06,59,12.60
2014,07,18,07,00,12.60
2014,07,18,07,01,12.70
2014,07,18,07,02,12.70
2014,07,18,07,03,12.70
2014,07,18,07,04,12.70
2014,07,18,07,05,12.70
2014,07,18,07,06,12.70
2014,07,18,07,07,12.80
2014,07,18,07,08,12.80
2014,07,18,07,09,12.80
2014,07,18,07,10,12.80
2014,07,18,07,11,12.90
2014,07,18,07,12,12.90
2014,07,18,07,13,12.90
2014,07,18,07,14,12.90
2014,07,18,07,15,13.00
2014,07,18,07,16,13.00
2014,07,18,07,17,13.00
2014,07,18,07,18,13.10
2014,07,18,07,19,13.10
2014,07,18,07,20,13.10
2014,07,18,07,21,13.10
2014,07,18,07,22,13.20
2014,07,18,07,23,13.20
2014,07,18,07,24,13.20
2014,07,18,07,25,13.30
2014,07,18,07,26,13.30
2014,07,18,07,27,13.30
2014,07,18,07,28,13.40
2014,07,18,07,29,13.40
2014,07,18,07,30,13.40
2014,07,18,07,31,13.50
2014,07,18,07,32,13.50
2014,07,18,07,33,13.60
2014,07,18,07,34,13.60
2014,07,18,07,35,13.60
2014,07,18,07,36,13.60
2014,07,18,07,37,13.60
2014,07,18,07,38,13.70
2014,07,18,07,39,13.70
2014,07,18,07,40,13.70
2014,07,18,07,41,13.70
2014,07,18,07,42,13.70
2014,07,18,07,43,13.80
2014,07,18,07,44,13.80
2014,07,18,07,45,13.80
2014,07,18,07,46,13.80
2014,07,18,07,47,13.80
2014,07,18,07,48,13.80
2014,07,18,07,49,13.80
2014,07,18,07,50,13.90
2014,07,18,07,51,13.90
2014,07,18,07,52,13.90
2014,07,18,07,53,13.90
2014,07,18,07,54,13.90
2014,07,18,07,55,13.90
2014,07,18,07,56,13.90
2014,07,18,07,57,13.90
2014,07,18,07,58,14.00
2014,07,18,07,59,14.00
2014,07,18,08,00,14.00
2014,07,18,08,01,14.10
2014,07,18,08,02,14.10
2014,07,18,08,03,14.20
2014,07,18,08,04,14.20
2014,07,18,08,05,14.30
2014,07,18,08,06,14.30
2014,07,18,08,07,14.40
2014,07,18,08,08,14.50
2014,07,18,08,09,14.50
2014,07,18,08,10,14.60
2014,07,18,08,11,14.70
2014,07,18,08,12,14.70
2014,07,18,08,13,14.80
2014,07,18,08,14,14.90
2014,07,18,08,15,14.90
2014,07,18,08,16,15.00
2014,07,18,08,17,15.10
2014,07,18,08,18,15.20
2014,07,18,08,19,15.20
2014,07,18,08,20,15.30
2014,07,18,08,21,15.40
2014,07,18,08,22,15.40
2014,07,18,08,23,15.40
2014,07,18,08,24,15.40
2014,07,18,08,25,15.50
2014,07,18,08,26,15.50
2014,07,18,08,27,15.60
2014,07,18,08,28,15.60
2014,07,18,08,29,15.60
2014,07,18,08,30,15.60
2014,07,18,08,31,15.60
2014,07,18,08,32,15.60
2014,07,18,08,33,15.60
2014,07,18,08,34,15.70
2014,07,18,08,35,15.70
2014,07,18,08,36,15.70
2014,07,18,08,37,15.70
2014,07,18,08,38,15.80
2014,07,18,08,39,15.80
2014,07,18,08,40,15.80
2014,07,18,08,41,15.80
2014,07,18,08,42,15.80
2014,07,18,08,43,15.80
2014,07,18,08,44,15.80
2014,07,18,08,45,15.80
2014,07,18,08,46,15.80
2014,07,18,08,47,15.80
2014,07,18,08,48,15.90
2014,07,18,08,49,15.90
2014,07,18,08,50,15.90
2014,07,18,08,51,15.90
2014,07,18,08,52,15.90
2014,07,18,08,53,15.90
2014,07,18,08,54,15.90
2014,07,18,08,55,15.90
2014,07,18,08,56,15.90
2014,07,18,08,57,15.80
2014,07,18,08,58,15.80
2014,07,18,08,59,15.90
2014,07,18,09,00,15.90
2014,07,18,09,01,15.90
2014,07,18,09,02,15.90
2014,07,18,09,03,15.90
2014,07,18,09,04,16.00
2014,07,18,09,05,16.00
2014,07,18,09,06,16.00
2014,07,18,09,07,15.90
2014,07,18,09,08,15.90
2014,07,18,09,09,15.90
2014,07,18,09,10,15.90
2014,07,18,09,11,15.90
2014,07,18,09,12,15.90
2014,07,18,09,13,15.90
2014,07,18,09,14,15.90
2014,07,18,09,15,15.90
2014,07,18,09,16,15.90
2014,07,18,09,17,15.90
2014,07,18,09,18,15.90
2014,07,18,09,19,15.90
2014,07,18,09,20,15.90
2014,07,18,09,21,15.90
2014,07,18,09,22,15.90
2014,07,18,09,23,15.90
2014,07,18,09,24,15.90
2014,07,18,09,25,15.90
2014,07,18,09,26,15.90
2014,07,18,09,27,15.90
2014,07,18,09,28,16.00
2014,07,18,09,29,16.00
2014,07,18,09,30,16.00
2014,07,18,09,31,16.00
2014,07,18,09,32,16.00
2014,07,18,09,33,16.00
2014,07,18,09,34,16.00
2014,07,18,09,35,16.10
2014,07,18,09,36,16.10
2014,07,18,09,37,16.20
2014,07,18,09,38,16.20
2014,07,18,09,39,16.20
2014,07,18,09,40,16.30
2014,07,18,09,41,16.30
2014,07,18,09,42,16.40
2014,07,18,09,43,16.40
2014,07,18,09,44,16.50
2014,07,18,09,45,16.50
2014,07,18,09,46,16.60
2014,07,18,09,47,16.70
2014,07,18,09,48,16.80
2014,07,18,09,49,16.80
2014,07,18,09,50,16.90
2014,07,18,09,51,16.90
2014,07,18,09,52,17.00
2014,07,18,09,53,17.00
2014,07,18,09,54,17.10
2014,07,18,09,55,17.20
2014,07,18,09,56,17.20
2014,07,18,09,57,17.30
2014,07,18,09,58,17.30
2014,07,18,09,59,17.30
2014,07,18,10,00,17.30
2014,07,18,10,01,17.20
2014,07,18,10,02,17.10
2014,07,18,10,03,17.10
2014,07,18,10,04,17.10
2014,07,18,10,05,17.20
2014,07,18,10,06,17.20
2014,07,18,10,07,17.30
2014,07,18,10,08,17.40
2014,07,18,10,09,17.50
2014,07,18,10,10,17.50
2014,07,18,10,11,17.60
2014,07,18,10,12,17.70
2014,07,18,10,13,17.70
2014,07,18,10,14,17.80
2014,07,18,10,15,17.80
2014,07,18,10,16,17.90
2014,07,18,10,17,17.90
2014,07,18,10,18,18.00
2014,07,18,10,19,18.10
2014,07,18,10,20,18.10
2014,07,18,10,21,18.20
2014,07,18,10,22,18.20
2014,07,18,10,23,18.30
2014,07,18,10,24,18.30
2014,07,18,10,25,18.40
2014,07,18,10,26,18.40
2014,07,18,10,27,18.40
2014,07,18,10,28,18.40
2014,07,18,10,29,18.50
2014,07,18,10,30,18.50
2014,07,18,10,31,18.60
2014,07,18,10,32,18.60
2014,07,18,10,33,18.60
2014,07,18,10,34,18.60
2014,07,18,10,35,18.70
2014,07,18,10,36,18.70
2014,07,18,10,37,18.70
2014,07,18,10,38,18.70
2014,07,18,10,39,18.70
2014,07,18,10,40,18.80
2014,07,18,10,41,18.80
2014,07,18,10,42,18.80
2014,07,18,10,43,18.80
2014,07,18,10,44,18.80
2014,07,18,10,45,18.80
2014,07,18,10,46,18.80
2014,07,18,10,47,18.80
2014,07,18,10,48,18.80
2014,07,18,10,49,18.90
2014,07,18,10,50,19.00
2014,07,18,10,51,19.00
2014,07,18,10,52,19.10
2014,07,18,10,53,19.10
2014,07,18,10,54,19.20
2014,07,18,10,55,19.20
2014,07,18,10,56,19.30
2014,07,18,10,57,19.30
2014,07,18,10,58,19.40
2014,07,18,10,59,19.40
2014,07,18,11,00,19.50
2014,07,18,11,01,19.50
2014,07,18,11,02,19.50
2014,07,18,11,03,19.60
2014,07,18,11,04,19.60
2014,07,18,11,05,19.60
2014,07,18,11,06,19.50
2014,07,18,11,07,19.50
2014,07,18,11,08,19.50
2014,07,18,11,09,19.40
2014,07,18,11,10,19.40
2014,07,18,11,11,19.40
2014,07,18,11,12,19.40
2014,07,18,11,13,19.30
2014,07,18,11,14,19.30
2014,07,18,11,15,19.30
2014,07,18,11,16,19.30
2014,07,18,11,17,19.20
2014,07,18,11,18,19.20
2014,07,18,11,19,19.10
2014,07,18,11,20,19.00
2014,07,18,11,21,18.90
2014,07,18,11,22,18.80
2014,07,18,11,23,18.80
2014,07,18,11,24,18.80
2014,07,18,11,25,18.80
2014,07,18,11,26,18.80
2014,07,18,11,27,18.80
2014,07,18,11,28,18.70
2014,07,18,11,29,18.70
2014,07,18,11,30,18.60
2014,07,18,11,31,18.50
2014,07,18,11,32,18.40
2014,07,18,11,33,18.30
2014,07,18,11,34,18.30
2014,07,18,11,35,18.30
2014,07,18,11,36,18.30
2014,07,18,11,37,18.30
2014,07,18,11,38,18.30
2014,07,18,11,39,18.30
2014,07,18,11,40,18.20
2014,07,18,11,41,18.20
2014,07,18,11,42,18.20
2014,07,18,11,43,18.10
2014,07,18,11,44,18.00
2014,07,18,11,45,18.00
2014,07,18,11,46,17.90
2014,07,18,11,47,17.90
2014,07,18,11,48,18.00
2014,07,18,11,49,18.10
2014,07,18,11,50,18.20
2014,07,18,11,51,18.20
2014,07,18,11,52,18.30
2014,07,18,11,53,18.30
2014,07,18,11,54,18.40
2014,07,18,11,55,18.40
2014,07,18,11,56,18.40
2014,07,18,11,57,18.40
2014,07,18,11,58,18.40
2014,07,18,11,59,18.40
2014,07,18,12,00,18.40
2014,07,18,12,01,18.40
2014,07,18,12,02,18.50
2014,07,18,12,03,18.50
2014,07,18,12,04,18.50
2014,07,18,12,05,18.50
2014,07,18,12,06,18.50
2014,07,18,12,07,18.40
2014,07,18,12,08,18.40
2014,07,18,12,09,18.40
2014,07,18,12,10,18.40
2014,07,18,12,11,18.50
2014,07,18,12,12,18.40
2014,07,18,12,13,18.40
2014,07,18,12,14,18.40
2014,07,18,12,15,18.40
2014,07,18,12,16,18.40
2014,07,18,12,17,18.40
2014,07,18,12,18,18.40
2014,07,18,12,19,18.30
2014,07,18,12,20,18.30
2014,07,18,12,21,18.30
2014,07,18,12,22,18.20
2014,07,18,12,23,18.20
2014,07,18,12,24,18.20
2014,07,18,12,25,18.20
2014,07,18,12,26,18.20
2014,07,18,12,27,18.20
2014,07,18,12,28,18.30
2014,07,18,12,29,18.30
2014,07,18,12,30,18.30
2014,07,18,12,31,18.30
2014,07,18,12,32,18.20
2014,07,18,12,33,18.20
2014,07,18,12,34,18.20
2014,07,18,12,35,18.10
2014,07,18,12,36,18.10
2014,07,18,12,37,18.10
2014,07,18,12,38,18.00
2014,07,18,12,39,17.90
2014,07,18,12,40,17.80
2014,07,18,12,41,17.70
2014,07,18,12,42,17.70
2014,07,18,12,43,17.60
2014,07,18,12,44,17.60
2014,07,18,12,45,17.60
2014,07,18,12,46,17.70
2014,07,18,12,47,17.80
2014,07,18,12,48,17.90
2014,07,18,12,49,17.90
2014,07,18,12,50,18.00
2014,07,18,12,51,18.10
2014,07,18,12,52,18.20
2014,07,18,12,53,18.20
2014,07,18,12,54,18.40
2014,07,18,12,55,18.50
2014,07,18,12,56,18.60
2014,07,18,12,57,18.70
2014,07,18,12,58,18.70
2014,07,18,12,59,18.80
2014,07,18,13,00,18.90
2014,07,18,13,01,18.80
2014,07,18,13,02,18.80
2014,07,18,13,03,18.80
2014,07,18,13,04,18.70
2014,07,18,13,05,18.70
2014,07,18,13,06,18.80
2014,07,18,13,07,18.90
2014,07,18,13,08,19.00
2014,07,18,13,09,19.10
2014,07,18,13,10,19.10
2014,07,18,13,11,19.20
2014,07,18,13,12,19.20
2014,07,18,13,13,19.30
2014,07,18,13,14,19.30
2014,07,18,13,15,19.30
2014,07,18,13,16,19.30
2014,07,18,13,17,19.30
2014,07,18,13,18,19.40
2014,07,18,13,19,19.40
2014,07,18,13,20,19.40
2014,07,18,13,21,19.40
2014,07,18,13,22,19.40
2014,07,18,13,23,19.50
2014,07,18,13,24,19.50
2014,07,18,13,25,19.60
2014,07,18,13,26,19.60
2014,07,18,13,27,19.50
2014,07,18,13,28,19.40
2014,07,18,13,29,19.30
2014,07,18,13,30,19.30
2014,07,18,13,31,19.40
2014,07,18,13,32,19.40
2014,07,18,13,33,19.50
2014,07,18,13,34,19.40
2014,07,18,13,35,19.40
2014,07,18,13,36,19.30
2014,07,18,13,37,19.30
2014,07,18,13,38,19.30
2014,07,18,13,39,19.30
2014,07,18,13,40,19.50
2014,07,18,13,41,19.50
2014,07,18,13,42,19.60
2014,07,18,13,43,19.60
2014,07,18,13,44,19.60
2014,07,18,13,45,19.60
2014,07,18,13,46,19.60
2014,07,18,13,47,19.60
2014,07,18,13,48,19.50
2014,07,18,13,49,19.50
2014,07,18,13,50,19.60
2014,07,18,13,51,19.60
2014,07,18,13,52,19.60
2014,07,18,13,53,19.50
2014,07,18,13,54,19.50
2014,07,18,13,55,19.60
2014,07,18,13,56,19.60
2014,07,18,13,57,19.60
2014,07,18,13,58,19.60
2014,07,18,13,59,19.60
2014,07,18,14,00,19.50
2014,07,18,14,01,19.50
2014,07,18,14,02,19.60
2014,07,18,14,03,19.60
2014,07,18,14,04,19.60
2014,07,18,14,05,19.50
2014,07,18,14,06,19.40
2014,07,18,14,07,19.30
2014,07,18,14,08,19.20
2014,07,18,14,09,19.20
2014,07,18,14,10,19.20
2014,07,18,14,11,19.20
2014,07,18,14,12,19.20
2014,07,18,14,13,19.40
2014,07,18,14,14,19.50
2014,07,18,14,15,19.60
2014,07,18,14,16,19.70
2014,07,18,14,17,19.70
2014,07,18,14,18,19.80
2014,07,18,14,19,19.90
2014,07,18,14,20,19.90
2014,07,18,14,21,19.90
2014,07,18,14,22,19.90
2014,07,18,14,23,19.90
2014,07,18,14,24,19.90
2014,07,18,14,25,19.90
2014,07,18,14,26,19.80
2014,07,18,14,27,19.90
2014,07,18,14,28,19.90
2014,07,18,14,29,19.90
2014,07,18,14,30,19.90
2014,07,18,14,31,20.00
2014,07,18,14,32,20.00
2014,07,18,14,33,20.10
2014,07,18,14,34,20.10
2014,07,18,14,35,20.10
2014,07,18,14,36,20.10
2014,07,18,14,37,20.20
2014,07,18,14,38,20.20
2014,07,18,14,39,20.20
2014,07,18,14,40,20.30
2014,07,18,14,41,20.30
2014,07,18,14,42,20.40
2014,07,18,14,43,20.50
2014,07,18,14,44,20.60
2014,07,18,14,45,20.70
2014,07,18,14,46,20.70
2014,07,18,14,47,20.70
2014,07,18,14,48,20.70
2014,07,18,14,49,20.70
2014,07,18,14,50,20.60
2014,07,18,14,51,20.60
2014,07,18,14,52,20.60
2014,07,18,14,53,20.60
2014,07,18,14,54,20.60
2014,07,18,14,55,20.60
2014,07,18,14,56,20.60
2014,07,18,14,57,20.60
2014,07,18,14,58,20.60
2014,07,18,14,59,20.60
2014,07,18,15,00,20.60
2014,07,18,15,01,20.60
2014,07,18,15,02,20.60
2014,07,18,15,03,20.50
2014,07,18,15,04,20.40
2014,07,18,15,05,20.40
2014,07,18,15,06,20.40
2014,07,18,15,07,20.40
2014,07,18,15,08,20.40
2014,07,18,15,09,20.40
2014,07,18,15,10,20.40
2014,07,18,15,11,20.30
2014,07,18,15,12,20.20
2014,07,18,15,13,20.10
2014,07,18,15,14,19.90
2014,07,18,15,15,19.80
2014,07,18,15,16,19.70
2014,07,18,15,17,19.60
2014,07,18,15,18,19.50
2014,07,18,15,19,19.40
2014,07,18,15,20,19.40
2014,07,18,15,21,19.40
2014,07,18,15,22,19.30
2014,07,18,15,23,19.30
2014,07,18,15,24,19.20
2014,07,18,15,25,19.20
2014,07,18,15,26,19.20
2014,07,18,15,27,19.10
2014,07,18,15,28,19.10
2014,07,18,15,29,19.10
2014,07,18,15,30,19.20
2014,07,18,15,31,19.20
2014,07,18,15,32,19.20
2014,07,18,15,33,19.10
2014,07,18,15,34,18.90
2014,07,18,15,35,18.80
2014,07,18,15,36,18.70
2014,07,18,15,37,18.70
2014,07,18,15,38,18.80
2014,07,18,15,39,18.80
2014,07,18,15,40,18.80
2014,07,18,15,41,18.80
2014,07,18,15,42,18.90
2014,07,18,15,43,19.00
2014,07,18,15,44,19.10
2014,07,18,15,45,19.20
2014,07,18,15,46,19.30
2014,07,18,15,47,19.30
2014,07,18,15,48,19.30
2014,07,18,15,49,19.40
2014,07,18,15,50,19.40
2014,07,18,15,51,19.40
2014,07,18,15,52,19.50
2014,07,18,15,53,19.60
2014,07,18,15,54,19.70
2014,07,18,15,55,19.80
2014,07,18,15,56,19.90
2014,07,18,15,57,20.00
2014,07,18,15,58,20.10
2014,07,18,15,59,20.10
2014,07,18,16,00,20.10
2014,07,18,16,01,20.10
2014,07,18,16,02,20.10
2014,07,18,16,03,20.00
2014,07,18,16,04,20.00
2014,07,18,16,05,19.90
2014,07,18,16,06,19.90
2014,07,18,16,07,19.90
2014,07,18,16,08,19.90
2014,07,18,16,09,19.90
2014,07,18,16,10,19.80
2014,07,18,16,11,19.80
2014,07,18,16,12,19.70
2014,07,18,16,13,19.60
2014,07,18,16,14,19.60
2014,07,18,16,15,19.60
2014,07,18,16,16,19.50
2014,07,18,16,17,19.50
2014,07,18,16,18,19.50
2014,07,18,16,19,19.60
2014,07,18,16,20,19.70
2014,07,18,16,21,19.80
2014,07,18,16,22,19.90
2014,07,18,16,23,20.10
2014,07,18,16,24,20.30
2014,07,18,16,25,20.50
2014,07,18,16,26,20.70
2014,07,18,16,27,20.90
2014,07,18,16,28,21.10
2014,07,18,16,29,21.30
2014,07,18,16,30,21.50
2014,07,18,16,31,21.60
2014,07,18,16,32,21.80
2014,07,18,16,33,21.90
2014,07,18,16,34,22.10
2014,07,18,16,35,22.20
2014,07,18,16,36,22.40
2014,07,18,16,37,22.50
2014,07,18,16,38,22.80
2014,07,18,16,39,23.00
2014,07,18,16,40,23.10
2014,07,18,16,41,23.20
2014,07,18,16,42,23.30
2014,07,18,16,43,23.40
2014,07,18,16,44,23.40
2014,07,18,16,45,23.50
2014,07,18,16,46,23.50
2014,07,18,16,47,23.60
2014,07,18,16,48,23.60
2014,07,18,16,49,23.70
2014,07,18,16,50,23.70
2014,07,18,16,51,23.80
2014,07,18,16,52,24.00
2014,07,18,16,53,24.20
2014,07,18,16,54,24.30
2014,07,18,16,55,24.40
2014,07,18,16,56,24.40
2014,07,18,16,57,24.50
2014,07,18,16,58,24.50
2014,07,18,16,59,24.50
2014,07,18,17,00,24.50
2014,07,18,17,01,24.50
2014,07,18,17,02,24.60
2014,07,18,17,03,24.70
2014,07,18,17,04,24.80
2014,07,18,17,05,24.90
2014,07,18,17,06,25.00
2014,07,18,17,07,25.10
2014,07,18,17,08,25.10
2014,07,18,17,09,25.10
2014,07,18,17,10,25.10
2014,07,18,17,11,25.10
2014,07,18,17,12,25.10
2014,07,18,17,13,25.10
2014,07,18,17,14,25.10
2014,07,18,17,15,25.10
2014,07,18,17,16,25.00
2014,07,18,17,17,25.00
2014,07,18,17,18,24.90
2014,07,18,17,19,24.90